Showing default

SURCAL 159, 2872

Orbit data source: Space-Track

SURCAL 159, 2872 is a payload satellite owned by NRL (US) in LEO that was launched on Wed, 31 May 1967 UTC via a THOR SLV-2 AGENA D launch vehicle from the Air Force Western Test Range (AFWTR). Payload-class satellites include a variety of spacecraft equipped with specific instruments for various scientific and technological missions. These include communications satellites like Starlink; space stations such as the ISS; scientific satellites like the Hubble; Earth observation satellites from companies like Planet Labs, Umbra, and HawkEye 360; GPS; miniature CubeSats for education and research; and military/defense satellites.

Loading next visibility...
Identifier
2872, 1967-053F
Orbit
LEO
Country
Flag of USUS
Related business
Manufacturer
NRL
Mission
Operational Defense Calibration
Bus & Motor
NRL 14"?, Unknown motor
Mass
3 kg wet, 3 kg dry
Launch date (UTC)
1967-05-31 (58 years ago)
Launch vehicle
THOR SLV-2 AGENA D
Launch site
Air Force Western Test Range (AFWTR)
Object type
Payload
Rocket body
Debris
Shape & HBR
Sphere, 0.2 m
Radar Cross Section
0.126 m², Medium (>0.1 m² and < 1m²)

Expand to show TLE details & history
Last TLE update: 16 hours ago

TLE from 16 hours ago
0 SURCAL 159
1 02872U 67053F   25258.64343953  .00000090  00000-0  98712-4 0  9999
2 02872  69.9726 231.9708 0003983 128.1162 232.0305 13.99501012971793
Epoch: 2025-09-15T15:26Z
TLE epoch observation values (Epoch: 2025-09-15T15:26:33.175Z)
Latitude
-0.00001°
Longitude
5.48742°
Altitude
899.621 km
Speed
7.402 km/s
True Right ascension
15h 27m 52s
True Declination
0° 00' 00"
Sunlit
Object was in daylight at epoch
Visualization orbit readout
Latitude
Unknown
Longitude
Unknown
Altitude
Unknown
Speed
Unknown
Apparent Right ascension
Unknown
Apparent Declination
Unknown
Sunlit
N/A
Visualization observer readout
Local Sidereal Time
00:36:20
Azimuth
Unknown
Elevation
Unknown
Doppler factor
Unknown
Orbital elements
Apogee altitude
896.463 km
Perigee altitude
890.67 km
Semi-major axis
7,271.703 km
Eccentricity
0.0004
Inclination
69.9726°
RAAN
231.9708°
Arg. of periapsis
128.1162°
True anomaly
231.99453°
Mean anomaly
232.0305°
Eccentric anomaly
232.01251°
Mean motion
3.50017 °/min
Orbital period
102.85 mins
BSTAR
0.000098712
Loading maneuver chart data...
Computing Atmospheric mass density...
Loading historical data...
Loading historical data...
Loading historical data...
Loading historical data...
Loading historical data...
Loading historical data...
Loading historical data...

Documentation

Showing up to 5 results
|